Regional Weather Roundup
Issued by NWS San Angelo, TX

Home | Current Version | Previous Version | Text Only | Print | Product List | Glossary On
Versions: 1 2 3 4 5 6 7 8 9 10 11 12 13 14 15 16 17 18 19 20 21 22 23 24 25 26 27 28 29 30 31 32 33 34 35 36 37 38 39 40 41 42 43 44 45 46 47 48 49 50
000
ASUS44 KSJT 280410
RWRSJT
WEST CENTRAL TEXAS REGIONAL WEATHER ROUNDUP
NATIONAL WEATHER SERVICE SAN ANGELO TX
1000 PM CST THU NOV 27 2014

NOTE: "FAIR" INDICATES FEW OR NO CLOUDS BELOW 12,000 FEET WITH NO
SIGNIFICANT WEATHER AND/OR OBSTRUCTIONS TO VISIBILITY.

TXZ049-054-064>066-071>073-076>078-098-099-113-114-127-128-139-140-
154-155-168>170-280500
...LOCATIONS ACROSS WEST CENTRAL TEXAS...

CITY           SKY/WX    TMP DP  RH WIND       PRES   REMARKS
SAN ANGELO     CLEAR     49  33  54 S7        30.32F
ABILENE        CLEAR     49  31  49 S10       30.31F
DYESS AFB      CLEAR     46  32  58 S8        30.30F
JUNCTION       CLEAR     51  32  48 S7        30.37F
SWEETWATER     CLEAR     50  32  50 S16       30.32S
BROWNWOOD      MOCLDY    45  30  57 MISG      30.36S
COLEMAN        CLEAR     46  36  68 S6        30.35S
SONORA         CLEAR     52  32  46 S6        30.40S
OZONA          FAIR      48  32  53 S7        30.38R
BRADY          CLEAR     45  30  57 SE8       30.35S
$$

TEXAS PANHANDLE/OKLAHOMA PANHANDLE

CITY           SKY/WX    TMP DP  RH WIND       PRES   REMARKS
AMARILLO       PTCLDY    42  30  62 S14       30.21F WCI  35
BORGER         CLEAR     50  30  46 S16G22    30.17F
CANADIAN       CLEAR     44  29  55 SW10      30.19F WCI  39
DALHART        CLOUDY    42  27  55 SW13      30.17F WCI  35
DUMAS            N/A     47  28  46 SW16      30.16F
GUYMON         NOT AVBL
HEREFORD       FAIR      46  31  57 MISG      30.23S
PAMPA          CLEAR     41  30  64 S13       30.19F WCI  34
PERRYTON       CLEAR     45  29  54 S14       30.14F WCI  38
$$

SOUTHERN PANHANDLE/SOUTH PLAINS/ROLLING PLAINS

CITY           SKY/WX    TMP DP  RH WIND       PRES   REMARKS
LUBBOCK        CLEAR     47  30  51 S12       30.26F
SNYDER         CLEAR     43  32  66 S5        30.30S WCI  40
CHILDRESS      PTCLDY    39  29  67 S9        30.25F WCI  33
SEMINOLE       CLEAR     42  29  59 S6        30.30F WCI  39
$$

PERMIAN BASIN

CITY           SKY/WX    TMP DP  RH WIND       PRES   REMARKS
MIDLAND        CLEAR     46  29  51 S8        30.29F
ODESSA         CLEAR     53  28  38 S15       30.30F
WINK           CLEAR     49  27  42 SE10      30.27F
$$

FAR WEST/SOUTHWEST MOUNTAINS/TRANS PECOS

CITY           SKY/WX    TMP DP  RH WIND       PRES   REMARKS
ALPINE         CLEAR     45  26  46 SW6       30.40R
DRYDEN           N/A     50  36  58 NE8       30.32F
EL PASO        CLEAR     47  20  34 E7        30.29S
FORT STOCKTON  CLEAR     50  31  48 SE7       30.31S
GUADALUPE PASS NOT AVBL
MARFA          CLEAR     34  19  55 NW6       30.37F WCI  29
PECOS          CLEAR     39  28  65 CALM      30.29S
$$

DALLAS/FORT WORTH METROPLEX

CITY           SKY/WX    TMP DP  RH WIND       PRES   REMARKS
DFW AIRPORT    CLEAR     46  28  49 S9        30.36F
FTW MEACHAM    CLEAR     47  28  47 S5        30.36F
DAL-EXECUTIVE  CLEAR     45  26  47 S3        30.36F
GRAND PRAIRIE  CLEAR     47  33  57 CALM      30.39F
ADDISON        CLEAR     49  31  51 CALM      30.39S
MESQUITE       CLEAR     40  26  57 CALM      30.39F
LANCASTER      CLEAR     40  27  60 CALM      30.39F
$$

NORTH CENTRAL TEXAS

CITY           SKY/WX    TMP DP  RH WIND       PRES   REMARKS
SHRMAN/DENISON CLEAR     46  27  47 SE8       30.38R
GAINESVILLE    NOT AVBL
BRIDGEPORT     CLEAR     45  29  53 S3        30.36F
DENTON         CLEAR     42  26  53 SE5       30.36F WCI  39
WAXAHACHIE     CLEAR     43  28  56 CALM      30.39F
GRANBURY       CLEAR     46  32  56 CALM      30.37F
$$

WESTERN NORTH TEXAS

CITY           SKY/WX    TMP DP  RH WIND       PRES   REMARKS
WICHITA FALLS  CLEAR     43  28  55 S12       30.31S WCI  37
VERNON         CLEAR     43  30  61 S8        30.29F WCI  38
BRECKENRIDGE   CLEAR     49  29  46 S8        30.32S
COMANCHE       CLEAR     44  32  64 S7        30.35F WCI  39
$$

CENTRAL AND SOUTH CENTRAL TEXAS

CITY           SKY/WX    TMP DP  RH WIND       PRES   REMARKS
AUSTIN/BERGSTM CLEAR     39  36  89 CALM      30.40F
WACO           CLEAR     41  38  89 S5        30.39F WCI  38
HILLSBORO      CLEAR     46  27  47 SE3       30.38S
TEMPLE         CLEAR     45  28  53 CALM      30.38F
KILLEEN-GRAY   CLEAR     46  31  56 S6        30.38F
FORT HOOD      CLEAR     46  33  60 SE3       30.38F
GEORGETOWN     CLEAR     39  34  81 CALM      30.40F
LAGO VISTA     FAIR      52  31  43 SE3       30.40S
SAN MARCOS     CLEAR     43  36  75 CALM      30.41F
NEW BRAUNFELS  CLEAR     47  35  63 CALM      30.39F
RANDOLPH AFB   CLEAR     45  37  76 N1        30.40F HAZE
SAN ANTONIO    CLEAR     48  39  71 NW3       30.40F
STINSON        CLEAR     47  37  68 CALM      30.39S
PLEASANTON     NOT AVBL
LA GRANGE      CLEAR     45  40  84 CALM      30.39F
GIDDINGS       CLEAR     42  37  80 CALM      30.44F
$$

EAST TEXAS

CITY           SKY/WX    TMP DP  RH WIND       PRES   REMARKS
PARIS          CLEAR     39  27  60 E10       30.41S WCI  32
CLARKSVILLE    NOT AVBL
TYLER          CLEAR     44  29  55 SE7       30.40S
LONGVIEW       CLEAR     42  32  67 CALM      30.42S
PALESTINE      CLEAR     48  33  56 E5        30.41F HAZE
NACOGDOCHES    CLEAR     37  32  81 CALM      30.43S
$$

TEXAS HILL COUNTRY AND EDWARDS PLATEAU

CITY           SKY/WX    TMP DP  RH WIND       PRES   REMARKS
LLANO          CLEAR     43  34  70 CALM      30.42S
HORSESHOE BAY  FAIR      46  33  61 SE3       30.40S
KERRVILLE      CLEAR     41  36  81 CALM      30.40S
FREDERICKSBRG  CLEAR     38  33  83 CALM      30.39F
ROCKSPRINGS    CLEAR     48  34  57 MISG      30.39S
HONDO          CLEAR     43  32  65 NE7       30.41F WCI  39
UVALDE         CLEAR     48  36  64 NE6       30.40S
DEL RIO        CLEAR     53  38  56 E8        30.35F
$$

SOUTHEAST TEXAS

CITY           SKY/WX    TMP DP  RH WIND       PRES   REMARKS
COLLEGE STN    CLEAR     48  34  58 CALM      30.41F
CALDWELL       CLEAR     43  34  70 CALM      30.44F
CROCKETT       CLEAR     41  39  93 CALM      30.45S
BRENHAM        CLEAR     45  39  79 CALM      30.42F
HUNTSVILLE     CLEAR     44  36  73 CALM      30.41S HAZE
CONROE         CLEAR     40  37  89 CALM      30.43S
HOUSTON BUSH   CLEAR     48  38  68 CALM      30.43R
HOUSTON HOBBY  CLEAR     49  41  74 CALM      30.42S
PERLAND        CLEAR     47  41  80 E8        30.44S
WHARTON        CLEAR     47  35  63 SE3       30.43S
$$

THE UPPER TEXAS COAST

CITY           SKY/WX    TMP DP  RH WIND       PRES   REMARKS
ORANGE         CLEAR     41  41 100 CALM      30.45S
PORT ARTHUR    CLEAR     44  41  89 CALM      30.43S
GALVESTON      CLEAR     55  44  66 E3        30.44S
ANGLETON       CLEAR     42  41  96 CALM      30.43S
BAY CITY         N/A     48  43  84 CALM      30.42S
$$

TEXAS COASTAL BEND, RIO GRANDE PLAINS DEEP SOUTH TEXAS

CITY           SKY/WX    TMP DP  RH WIND       PRES   REMARKS
VICTORIA       CLEAR     49  45  86 SE6       30.42S
BEEVILLE       FAIR      52  45  77 E6        30.40F
ROCKPORT       CLEAR     60  54  80 E7        30.40F
PORT ARANSAS   CLEAR     63  57  81 E7        30.39F
PORT LAVACA    NOT AVBL
CORPUS CHRISTI PTCLDY    60  56  86 E8        30.39F
KINGSVILLE NAS CLEAR     56  56 100 NE3       30.39F
COTULLA        CLEAR     56  46  69 SE8       30.39S
LAREDO         CLEAR     60  52  75 E12       30.39F
BROWNSVILLE    FOG       56  55  97 CALM      30.38F VSB 1/4
PORT ISABEL    CLEAR     56  55  97 CALM      30.38S
HEBBRONVILLE   MOCLDY    55  51  88 N3        30.40S
MCALLEN        CLEAR     58  55  90 SE3       30.39S
WESLACO        CLEAR     60  56  85 E3        30.38F
FALFURRIAS     CLEAR     55  53  91 CALM      30.39S
EDINBURG       CLEAR     59  56  90 CALM      30.39S
$$


USA.gov is the U.S. government's official web portal to all federal, state and local government web resources and services.